GW5060 Weather Reports


time (UTC)temp
C
wind
direction
speed
KPH
gust
KPH
rain 1hr
cm
rain 24hr
cm
rain mn
cm
humidity
%
barometer
mb
20260506235539 13 348 6.4 12.9 0.00 1.55 0.00 83 1011.4
20260506235037 13 21 6.4 12.9 0.00 1.55 0.00 83 1011.3
20260506234545 13 351 4.8 12.9 0.00 1.55 0.00 83 1011.4
20260506234040 13 342 4.8 8.0 0.00 1.55 0.00 83 1011.4
20260506233540 13 338 4.8 8.0 0.00 1.55 0.00 83 1011.3
20260506233056 13 331 3.2 8.0 0.00 1.55 0.00 82 1011.3
20260506232537 13 352 3.2 12.9 0.00 1.55 0.00 83 1011.2
20260506232035 13 347 4.8 12.9 0.00 1.55 0.00 82 1011.1
20260506231546 13 352 6.4 12.9 0.00 1.55 0.00 82 1011.0
20260506231035 13 5 4.8 11.3 0.00 1.55 0.00 82 1010.9
20260506230534 13 352 3.2 9.7 0.00 1.55 0.00 82 1010.9
20260506230051 13 5 3.2 9.7 0.00 1.55 0.00 82 1010.9
20260506225541 13 343 4.8 9.7 0.00 1.57 0.00 81 1010.8
20260506225038 13 9 4.8 9.7 0.00 1.57 0.00 81 1010.8
20260506224553 13 329 4.8 12.9 0.00 1.57 0.00 81 1010.9
20260506224039 13 352 4.8 12.9 0.00 1.57 0.00 81 1010.9
20260506223537 13 339 4.8 8.0 0.00 1.57 0.00 80 1010.8
20260506223045 13 323 3.2 11.3 0.00 1.57 0.00 80 1010.9
20260506222538 13 317 3.2 11.3 0.00 1.57 0.00 80 1011.0
20260506222038 13 300 3.2 9.7 0.00 1.57 0.00 80 1011.0
20260506221549 13 281 3.2 6.4 0.00 1.57 0.00 80 1011.0
20260506221037 13 259 3.2 4.8 0.00 1.57 0.00 80 1011.0
20260506220537 13 298 1.6 6.4 0.00 1.57 0.00 79 1011.0
20260506220049 13 56 0.0 6.4 0.00 1.57 0.00 79 1010.9
20260506215537 13 0 1.6 9.7 0.00 1.57 1.57 79 1010.9
20260506215039 13 360 4.8 9.7 0.00 1.57 1.57 79 1010.8
20260506214600 14 346 3.2 9.7 0.00 1.57 1.57 78 1010.7
20260506214036 14 14 3.2 14.5 0.00 1.57 1.57 78 1010.8
20260506213541 14 67 4.8 14.5 0.00 1.57 1.57 78 1010.7
20260506213049 14 20 6.4 14.5 0.00 1.57 1.57 77 1010.7
20260506212538 14 42 4.8 12.9 0.00 1.57 1.57 77 1010.7
20260506212038 14 26 4.8 14.5 0.00 1.57 1.57 77 1010.7
20260506211547 14 12 6.4 16.1 0.00 1.57 1.57 77 1010.7
20260506211038 14 360 8.0 16.1 0.00 1.57 1.57 77 1010.8
20260506210537 14 338 8.0 16.1 0.00 1.57 1.57 77 1010.7
20260506210050 14 48 4.8 12.9 0.00 1.57 1.57 78 1010.7
20260506205538 14 337 4.8 12.9 0.00 1.68 1.57 78 1010.7
20260506205037 14 352 6.4 14.5 0.00 1.68 1.57 78 1010.7
20260506204551 14 360 6.4 16.1 0.00 1.68 1.57 78 1010.7
20260506204037 14 344 6.4 16.1 0.00 1.68 1.57 78 1010.7
20260506203540 14 337 8.0 19.3 0.00 1.68 1.57 78 1010.6
20260506203048 14 11 9.7 19.3 0.00 1.68 1.57 78 1010.7
20260506202537 14 13 9.7 16.1 0.00 1.68 1.57 78 1010.4
20260506202036 13 352 9.7 20.9 0.00 1.68 1.57 79 1010.4
20260506201548 13 360 11.3 20.9 0.00 1.68 1.57 79 1010.4
20260506201036 13 11 11.3 20.9 0.00 1.68 1.57 80 1010.4
20260506200535 13 43 11.3 22.5 0.00 1.68 1.57 81 1010.3
20260506200100 13 26 12.9 22.5 0.00 1.68 1.57 82 1010.4
20260506195536 13 327 11.3 19.3 0.00 1.70 1.57 82 1010.4
20260506195038 13 352 9.7 19.3 0.00 1.70 1.57 82 1010.3
20260506194551 13 317 11.3 19.3 0.00 1.70 1.57 82 1010.4
20260506194039 14 345 12.9 19.3 0.00 1.70 1.57 82 1010.3
20260506193535 14 330 8.0 17.7 0.00 1.70 1.57 81 1010.0
20260506193054 14 328 4.8 14.5 0.00 1.70 1.57 80 1009.9
20260506192537 14 323 8.0 14.5 0.00 1.70 1.57 80 1010.0
20260506192041 14 333 4.8 12.9 0.00 1.70 1.57 79 1009.9
20260506191554 14 5 4.8 12.9 0.00 1.70 1.57 79 1009.8
20260506191038 14 348 6.4 12.9 0.00 1.70 1.57 79 1009.6
20260506190538 14 25 4.8 11.3 0.00 1.70 1.57 79 1009.6
20260506190053 14 30 4.8 11.3 0.00 1.70 1.57 79 1009.6
20260506185537 14 5 6.4 9.7 0.00 1.70 1.57 79 1009.5
20260506185035 14 338 4.8 14.5 0.00 1.70 1.57 78 1009.4
20260506184549 14 5 4.8 14.5 0.00 1.70 1.57 78 1009.4
20260506184036 14 13 6.4 14.5 0.00 1.70 1.57 78 1009.2
20260506183538 14 352 6.4 16.1 0.00 1.70 1.57 77 1009.1
20260506183052 15 352 8.0 24.1 0.00 1.70 1.57 77 1009.2
20260506182537 15 21 9.7 24.1 0.00 1.70 1.57 77 1009.1
20260506182037 15 44 12.9 24.1 0.00 1.70 1.57 76 1008.9
20260506181556 15 35 6.4 17.7 0.00 1.70 1.57 76 1008.8
20260506181038 15 35 8.0 17.7 0.00 1.70 1.57 76 1008.8
20260506180538 15 40 9.7 20.9 0.00 1.70 1.57 75 1008.8
20260506180111 15 32 8.0 20.9 0.00 1.70 1.57 75 1008.7
20260506175538 15 19 11.3 20.9 0.00 1.70 1.57 75 1008.6
20260506175037 15 5 9.7 19.3 0.00 1.70 1.57 75 1008.6
20260506174549 16 14 8.0 24.1 0.00 1.70 1.57 75 1008.6
20260506174037 16 5 12.9 24.1 0.00 1.70 1.57 74 1008.5
20260506173537 16 10 16.1 27.4 0.00 1.70 1.57 74 1008.4
20260506173106 16 352 14.5 27.4 0.00 1.70 1.57 74 1008.3
20260506172709 16 9 12.9 27.4 0.00 1.70 1.57 73 1008.2
20260506172037 16 360 17.7 27.4 0.00 1.70 1.57 72 1008.1
20260506171547 17 337 17.7 27.4 0.00 1.70 1.57 70 1008.0
20260506171037 18 22 14.5 27.4 0.00 1.70 1.57 68 1007.8
20260506170539 18 5 14.5 25.7 0.00 1.70 1.57 66 1007.6
20260506170050 19 320 11.3 22.5 0.00 1.70 1.57 62 1007.5
20260506165537 20 341 16.1 22.5 0.00 1.70 1.57 59 1007.3
20260506165038 21 236 6.4 20.9 0.00 1.70 1.57 49 1007.1
20260506164549 21 173 8.0 29.0 0.00 1.70 1.57 49 1006.9
20260506164037 21 209 14.5 29.0 0.00 1.70 1.57 49 1006.7
20260506163537 21 178 11.3 24.1 0.00 1.70 1.57 51 1006.7
20260506163055 21 171 11.3 25.7 0.00 1.70 1.57 51 1006.6
20260506162537 21 194 11.3 25.7 0.00 1.70 1.57 52 1006.6
20260506162039 21 167 9.7 25.7 0.00 1.70 1.57 49 1006.5
20260506161554 21 228 9.7 25.7 0.00 1.70 1.57 56 1006.5
20260506161037 21 157 12.9 25.7 0.00 1.70 1.57 57 1006.4
20260506160537 21 163 11.3 25.7 0.00 1.70 1.57 64 1006.4
20260506160049 21 140 14.5 27.4 0.00 1.70 1.57 73 1006.4
20260506155541 20 148 12.9 27.4 0.00 1.70 1.57 74 1006.4
20260506155035 20 150 19.3 27.4 0.00 1.70 1.57 74 1006.5
20260506154552 20 132 12.9 32.2 0.00 1.70 1.57 76 1006.5
20260506154038 20 120 16.1 32.2 0.00 1.70 1.57 76 1006.6
20260506153538 20 149 17.7 32.2 0.00 1.70 1.57 71 1006.6
20260506153046 20 140 17.7 30.6 0.00 1.70 1.57 77 1006.7
20260506152538 20 112 14.5 24.1 0.00 1.70 1.57 78 1006.7
20260506152041 20 106 14.5 29.0 0.00 1.70 1.57 77 1006.7
20260506151548 20 89 17.7 30.6 0.00 1.70 1.57 77 1006.8
20260506151037 20 121 16.1 30.6 0.00 1.70 1.57 77 1006.9
20260506150537 20 131 16.1 27.4 0.00 1.70 1.57 79 1006.9
20260506150056 20 126 16.1 27.4 0.00 1.70 1.57 78 1007.0
20260506145539 20 126 14.5 27.4 0.00 1.70 1.57 79 1007.1
20260506145037 20 95 14.5 27.4 0.00 1.70 1.57 74 1007.3
20260506144601 20 92 12.9 24.1 0.00 1.70 1.57 80 1007.3
20260506144037 20 132 16.1 27.4 0.00 1.70 1.57 81 1007.3
20260506143537 19 124 17.7 30.6 0.00 1.70 1.57 79 1007.3
20260506143047 19 127 20.9 30.6 0.00 1.70 1.57 79 1007.4
20260506142539 19 129 17.7 30.6 0.00 1.70 1.57 80 1007.4
20260506142037 19 101 16.1 29.0 0.00 1.70 1.57 80 1007.4
20260506141545 19 139 19.3 35.4 0.00 1.70 1.57 80 1007.5
20260506141037 19 118 20.9 35.4 0.00 1.70 1.57 80 1007.5
20260506140538 19 152 20.9 33.8 0.00 1.70 1.57 80 1007.7
20260506140051 19 136 20.9 30.6 0.00 1.70 1.57 80 1007.8
20260506135537 19 130 17.7 27.4 0.00 1.70 1.57 81 1007.9
20260506135037 19 137 19.3 30.6 0.00 1.70 1.57 79 1007.9
20260506134549 19 74 19.3 30.6 0.00 1.70 1.57 80 1007.9
20260506134037 19 128 16.1 27.4 0.00 1.70 1.57 76 1008.0
20260506133538 18 136 12.9 27.4 0.00 1.70 1.57 83 1008.2
20260506133051 18 136 16.1 27.4 0.00 1.70 1.57 82 1008.3
20260506132537 18 111 16.1 27.4 0.00 1.70 1.57 81 1008.3
20260506132037 18 113 12.9 22.5 0.00 1.70 1.57 83 1008.4
20260506131549 18 98 14.5 29.0 0.00 1.70 1.57 82 1008.4
20260506131037 18 147 17.7 29.0 0.00 1.70 1.57 83 1008.3
20260506130537 18 125 17.7 32.2 0.00 1.70 1.57 83 1008.3
20260506130052 18 137 20.9 32.2 0.00 1.70 1.57 82 1008.5
20260506125537 18 104 16.1 25.7 0.00 1.70 1.57 83 1008.5
20260506125037 18 121 14.5 27.4 0.00 1.70 1.57 83 1008.5
20260506124553 18 73 14.5 30.6 0.00 1.70 1.57 83 1008.5
20260506124041 18 86 12.9 30.6 0.00 1.70 1.57 85 1008.5
20260506123538 18 103 16.1 30.6 0.00 1.70 1.57 84 1008.5
20260506123049 18 38 17.7 27.4 0.00 1.70 1.57 83 1008.6
20260506122538 18 105 12.9 24.1 0.00 1.70 1.57 84 1008.7
20260506122039 17 168 14.5 25.7 0.00 1.70 1.57 84 1008.7
20260506121548 17 112 14.5 25.7 0.00 1.70 1.57 84 1008.8
20260506121037 17 109 16.1 25.7 0.00 1.70 1.57 85 1008.8
20260506120538 17 88 14.5 27.4 0.00 1.70 1.57 85 1008.8
20260506120050 17 93 16.1 27.4 0.00 1.70 1.57 86 1008.8
20260506115541 17 127 14.5 27.4 0.00 1.70 1.57 87 1008.8
20260506115038 17 120 14.5 27.4 0.00 1.70 1.57 87 1008.8
20260506114547 17 102 17.7 27.4 0.00 1.70 1.57 89 1009.0
20260506114038 17 126 14.5 32.2 0.00 1.70 1.57 89 1008.9
20260506113537 16 130 16.1 32.2 0.00 1.70 1.57 88 1008.9
20260506113045 16 112 14.5 25.7 0.00 1.70 1.57 89 1009.0
20260506112538 16 135 16.1 29.0 0.00 1.70 1.57 89 1009.0
20260506112039 16 145 19.3 29.0 0.00 1.70 1.57 90 1008.9
20260506111547 16 110 16.1 29.0 0.00 1.70 1.57 91 1009.0
20260506111037 16 123 16.1 24.1 0.00 1.70 1.57 90 1009.0
20260506110538 16 147 16.1 27.4 0.00 1.70 1.57 90 1009.1
20260506110046 16 147 14.5 29.0 0.00 1.70 1.57 91 1009.1
20260506105538 16 138 12.9 32.2 0.00 1.70 1.57 91 1009.2
20260506105041 16 134 20.9 32.2 0.00 1.70 1.57 91 1009.2
20260506104555 16 129 17.7 29.0 0.00 1.70 1.57 93 1009.3
20260506104037 15 84 16.1 27.4 0.00 1.70 1.57 93 1009.2
20260506103537 15 169 12.9 24.1 0.00 1.70 1.57 94 1009.2
20260506103046 15 102 14.5 27.4 0.08 1.70 1.57 94 1009.3
20260506102540 15 82 14.5 27.4 0.25 1.70 1.57 93 1009.3
20260506102036 15 116 14.5 29.0 0.38 1.70 1.57 93 1009.4
20260506101548 15 82 16.1 37.0 0.43 1.70 1.57 94 1009.3
20260506101037 15 144 19.3 37.0 0.46 1.70 1.57 94 1009.4
20260506100537 15 85 19.3 33.8 0.56 1.70 1.57 95 1009.5
20260506100047 15 76 19.3 33.8 0.66 1.70 1.57 96 1009.3
20260506095538 14 102 16.1 33.8 0.76 1.70 1.57 96 1009.1
20260506095040 14 105 16.1 29.0 0.74 1.68 1.55 96 1009.1
20260506094600 14 59 11.3 41.8 0.76 1.68 1.55 96 1009.1
20260506094037 13 126 24.1 41.8 0.79 1.68 1.55 95 1009.1
20260506093537 14 117 16.1 27.4 0.79 1.68 1.52 96 1009.1
20260506093047 13 72 16.1 27.4 0.74 1.60 1.47 96 1009.4
20260506092537 13 105 17.7 27.4 0.56 1.42 1.30 96 1009.4
20260506092037 13 113 12.9 20.9 0.46 1.30 1.17 96 1009.5
20260506091548 13 98 12.9 20.9 0.41 1.27 1.12 95 1009.6
20260506091037 13 143 6.4 14.5 0.41 1.24 1.12 95 1009.8
20260506090538 13 119 1.6 9.7 0.36 1.12 0.99 95 1010.0
20260506090047 13 234 3.2 9.7 0.25 1.02 0.89 95 1010.2
20260506085537 13 227 1.6 17.7 0.15 1.02 0.79 95 1010.0
20260506085039 13 58 8.0 19.3 0.15 1.02 0.79 95 1009.6
20260506084550 13 63 8.0 20.9 0.13 1.02 0.76 95 1009.4
20260506084038 13 112 11.3 25.7 0.10 0.99 0.74 95 1009.2
20260506083538 13 121 14.5 27.4 0.08 0.97 0.74 95 1009.2
20260506083057 13 142 16.1 27.4 0.08 0.97 0.74 96 1009.2
20260506082537 13 109 14.5 27.4 0.08 0.94 0.71 96 1009.3
20260506082037 13 100 16.1 30.6 0.08 0.94 0.71 96 1009.2
20260506081547 13 78 14.5 30.6 0.08 0.94 0.71 96 1009.0
20260506081038 13 82 11.3 22.5 0.05 0.94 0.69 96 1009.3
20260506080537 13 111 12.9 25.7 0.00 0.86 0.64 96 1009.5
20260506080106 13 106 12.9 32.2 0.00 0.86 0.64 95 1009.6
20260506073103 13 107 16.1 29.0 0.00 1.02 0.64 96 1009.4
20260506072541 13 120 16.1 29.0 0.00 1.02 0.64 96 1009.4
20260506072036 13 137 16.1 29.0 0.00 1.02 0.64 96 1009.4
20260506071553 13 109 17.7 29.0 0.03 1.02 0.64 96 1009.4
20260506071037 13 113 12.9 22.5 0.03 1.02 0.64 96 1009.3
20260506070537 13 63 9.7 22.5 0.03 1.02 0.64 96 1009.3
20260506062036 13 117 11.3 20.9 0.00 1.04 0.61 96 1009.9
20260506061545 13 135 12.9 20.9 0.00 1.02 0.58 96 1009.8
20260506061038 13 134 9.7 19.3 0.00 1.02 0.58 96 1009.9
20260506060537 12 144 9.7 19.3 0.00 1.02 0.58 96 1010.0
20260506051036 12 133 6.4 16.1 0.20 1.02 0.58 96 1009.8
20260506050537 12 104 6.4 14.5 0.28 1.02 0.58 96 1009.8
20260506045037 12 103 4.8 11.3 0.43 1.02 0.58 96 1010.1
20260506044551 12 79 3.2 8.0 0.43 1.02 0.56 95 1010.4
20260506044038 12 126 3.2 8.0 0.46 1.02 0.56 95 1010.7
20260506043537 12 176 1.6 8.0 0.48 1.02 0.56 95 1010.6
20260506043050 12 239 1.6 16.1 0.48 0.99 0.56 96 1010.2
20260506042538 12 119 6.4 16.1 0.43 0.94 0.48 96 1009.9
20260506042036 12 121 8.0 14.5 0.41 0.89 0.46 95 1009.6
20260506041554 12 117 6.4 14.5 0.41 0.86 0.43 95 1009.8
20260506041037 13 90 6.4 12.9 0.36 0.81 0.36 95 1010.2
20260506040538 13 130 6.4 11.3 0.28 0.74 0.30 95 1010.6
20260506040052 12 140 3.2 6.4 0.23 0.69 0.25 95 1010.6
20260506035538 12 0 1.6 6.4 0.18 0.64 0.20 95 1010.7
20260506035038 12 155 1.6 11.3 0.13 0.58 0.15 95 1010.7
20260506034552 12 134 3.2 11.3 0.10 0.56 0.13 95 1010.5
20260506034038 12 124 6.4 12.9 0.08 0.53 0.08 95 1010.4
20260506033538 13 137 6.4 12.9 0.05 0.51 0.08 95 1010.4
20260506033120 13 142 8.0 12.9 0.03 0.48 0.05 95 1010.5
20260506032538 13 136 8.0 14.5 0.00 0.46 0.03 94 1010.6
20260506032035 13 112 6.4 14.5 0.00 0.46 0.03 94 1010.5
20260506031547 13 146 6.4 11.3 0.00 0.46 0.00 94 1010.7
20260506031040 13 153 1.6 6.4 0.00 0.46 0.00 94 1010.6
20260506030537 13 92 3.2 6.4 0.00 0.46 0.00 94 1010.6
20260506030058 13 44 1.6 8.0 0.00 0.46 0.00 94 1010.6
20260506025537 13 70 4.8 8.0 0.00 0.46 0.00 94 1010.6
20260506025037 13 153 3.2 9.7 0.00 0.46 0.00 94 1010.7
20260506024607 13 105 4.8 9.7 0.00 0.46 0.00 94 1010.7
20260506024038 13 119 3.2 8.0 0.00 0.46 0.00 94 1010.8
20260506023536 13 93 1.6 11.3 0.00 0.46 0.00 94 1010.9
20260506023100 13 144 1.6 11.3 0.00 0.46 0.00 94 1011.1
20260506022537 13 114 4.8 11.3 0.00 0.46 0.00 94 1011.2
20260506022038 13 135 4.8 11.3 0.00 0.46 0.00 94 1011.4
20260506021557 13 111 6.4 11.3 0.00 0.46 0.00 94 1011.3
20260506021038 13 102 4.8 14.5 0.00 0.46 0.00 94 1011.4
20260506020535 13 92 8.0 14.5 0.00 0.46 0.00 94 1011.3
20260506020044 13 101 8.0 14.5 0.00 0.46 0.00 94 1011.3
20260506015535 13 114 6.4 17.7 0.00 0.46 0.00 94 1011.4
20260506015035 13 136 6.4 17.7 0.00 0.46 0.00 94 1011.5
20260506014547 13 111 6.4 14.5 0.00 0.46 0.00 94 1011.6
20260506014036 13 136 8.0 14.5 0.00 0.46 0.00 93 1011.5
20260506013537 13 134 8.0 16.1 0.00 0.46 0.00 93 1011.6
20260506013048 13 136 9.7 16.1 0.00 0.46 0.00 93 1011.5
20260506012537 13 132 8.0 14.5 0.00 0.46 0.00 93 1011.4
20260506012036 13 120 6.4 12.9 0.00 0.46 0.00 93 1011.6
20260506011609 13 123 6.4 11.3 0.00 0.46 0.00 93 1011.7
20260506011038 13 132 3.2 11.3 0.00 0.46 0.00 93 1011.7
20260506010538 13 126 4.8 11.3 0.00 0.46 0.00 93 1011.5
20260506005536 13 85 1.6 14.5 0.00 0.46 0.00 93 1011.6
20260506005040 13 74 8.0 14.5 0.00 0.46 0.00 93 1011.4
20260506004546 13 93 4.8 12.9 0.00 0.46 0.00 93 1011.5
20260506004035 13 79 3.2 12.9 0.00 0.46 0.00 93 1011.7
20260506003535 13 94 4.8 12.9 0.00 0.46 0.00 93 1011.7
20260506003047 13 138 6.4 14.5 0.00 0.46 0.00 93 1011.8
20260506002537 13 149 4.8 14.5 0.00 0.46 0.00 93 1011.9
20260506002035 13 128 6.4 14.5 0.00 0.46 0.00 93 1012.0
20260506001551 13 118 4.8 14.5 0.00 0.46 0.00 93 1012.0
20260506001036 13 130 4.8 14.5 0.00 0.46 0.00 93 1012.0
20260506000535 13 140 8.0 14.5 0.00 0.46 0.00 93 1012.1
20260506000054 13 132 4.8 11.3 0.00 0.46 0.00 93 1012.1